GFSSE_con_3kmhel_060.txt.gz
Helicity
204 201 163 133 122 129 134 143 155 161 155 144 138 126 124 108 91 80 84 90 82 78 68 57 39 17 16 22 32 38 40 55 53 46 60 76 75 63 62 58 53 45 76
277 207 174 129 124 144 143 110 93 94 108 101 86 85 89 81 73 73 85 85 70 67 61 49 25 -2 1 10 17 28 46 44 40 31 36 48 58 54 55 56 50 47 62
205 210 177 145 146 150 151 144 129 117 104 88 77 87 64 66 75 78 86 84 75 85 77 55 48 45 28 14 17 32 41 39 26 14 10 -27 1 45 44 46 51 66 67
198 224 197 179 179 182 183 165 136 92 104 87 81 79 62 82 80 66 76 78 79 74 67 68 69 66 59 42 39 41 46 43 32 22 -13 -17 4 49 48 49 53 53 55
206 216 193 206 212 221 198 158 119 87 99 101 90 69 60 78 65 52 52 59 60 61 64 57 46 46 44 46 48 56 61 53 37 14 -7 -11 -8 38 54 57 54 62 63
176 189 188 174 159 173 154 131 92 51 89 96 58 52 52 56 55 27 26 48 62 71 78 74 72 50 50 53 72 78 69 62 44 20 15 20 6 53 53 49 54 62 67
164 165 127 139 177 184 157 100 91 51 76 84 71 44 35 44 33 24 37 70 87 79 77 86 91 94 75 76 73 75 72 62 24 17 9 2 10 50 51 48 43 47 60
223 177 200 181 204 221 85 65 71 43 94 47 58 27 35 16 33 64 90 102 92 81 63 66 93 111 94 63 54 62 69 52 24 8 2 -3 43 52 48 33 37 47 60
231 318 359 296 292 98 118 50 41 43 8 73 53 28 21 55 84 91 89 88 88 95 101 97 87 107 103 90 83 65 72 71 35 20 15 -1 53 59 50 35 40 53 68
295 333 286 242 166 104 125 37 12 15 50 56 40 49 82 81 76 95 79 93 100 93 111 129 146 134 115 105 99 97 85 76 58 49 39 25 70 70 61 57 48 41 55
454 347 315 264 269 293 244 24 31 47 51 53 71 53 70 69 81 93 89 94 91 109 124 147 149 147 144 146 134 122 110 73 73 69 65 75 99 75 62 55 48 42 56
294 249 161 205 143 228 -39 -4 12 33 63 31 -13 67 76 82 86 74 77 92 126 131 152 167 163 157 127 88 90 119 76 96 102 90 107 133 132 120 105 70 36 28 39
193 19 40 83 88 -60 -10 -8 -16 39 84 63 79 85 63 70 64 64 82 98 104 132 128 140 141 133 133 104 94 85 95 102 107 113 119 130 130 128 128 97 72 60 47
67 -14 -112 -102 -92 -78 -65 -31 30 30 12 -4 -17 38 67 77 69 78 88 117 138 128 152 144 147 146 135 120 105 111 115 113 98 92 104 123 117 123 157 138 121 85 55
-144 -270 -228 -176 -61 -9 33 12 -17 -20 -17 -5 45 50 65 61 76 91 131 153 168 163 165 170 163 148 127 112 119 126 127 105 89 80 91 121 130 146 143 163 136 97 65
-185 -215 -131 -8 15 38 18 9 13 45 53 38 28 20 37 61 88 142 163 177 189 180 179 184 159 126 107 98 114 116 108 101 106 99 104 148 271 290 286 218 160 125 94
-17 2 -6 25 38 51 35 17 23 17 17 24 50 54 69 113 146 159 184 213 190 191 204 163 134 114 112 103 135 145 120 105 122 133 118 133 177 263 248 211 173 139 103
-11 7 29 47 55 32 32 26 43 45 44 39 60 88 99 119 145 190 218 209 187 176 155 135 114 127 125 131 113 101 75 84 101 112 102 107 133 147 153 166 155 160 142
26 34 29 60 54 14 15 12 23 53 59 60 83 77 101 150 177 205 218 198 175 160 145 120 121 110 121 98 65 62 17 20 50 67 86 94 101 109 121 151 185 175 169
-15 -19 14 9 21 22 48 67 75 89 91 85 72 96 155 187 198 226 217 190 157 161 135 122 132 127 74 43 -14 8 -46 -33 39 73 59 73 100 115 138 138 150 150 171
14 23 60 76 58 93 103 117 108 114 107 112 105 147 173 198 221 213 195 169 147 144 125 126 103 73 19 -7 -13 -22 -25 -21 66 94 88 79 81 96 106 112 99 109 119
88 59 74 89 143 138 157 161 136 154 124 134 148 169 197 218 183 171 169 152 152 171 140 107 71 32 2 -15 14 3 37 69 12 72 90 112 97 73 68 82 90 99 110
72 97 110 125 164 168 209 255 229 262 209 204 198 197 195 175 147 156 164 183 166 142 151 117 67 47 50 32 39 30 43 57 160 117 83 107 110 82 65 84 74 86 105
25 52 99 150 179 201 254 281 283 291 282 209 172 175 185 144 165 191 212 194 203 198 193 139 31 9 63 66 98 53 98 180 188 208 143 161 172 126 97 91 88 104 134
110 147 176 183 182 218 267 249 280 285 248 201 176 184 198 203 211 232 255 273 253 243 199 198 81 151 115 101 143 195 199 162 184 234 250 208 214 132 113 109 105 137 198
168 191 240 274 210 218 239 252 285 277 217 202 180 206 237 248 267 271 285 313 360 522 341 181 73 163 160 112 209 198 193 193 232 235 267 219 207 150 105 100 126 174 189

GFSSE_con_3kmhel_063.txt.gz
Helicity
164 126 148 132 147 165 217 236 221 201 179 164 164 151 167 173 142 96 75 63 52 44 40 36 48 56 52 50 53 56 47 36 31 42 55 64 63 65 70 72 56 57 58
251 157 149 133 163 163 195 212 205 184 162 144 147 163 172 141 106 62 64 53 46 34 22 18 21 24 29 35 38 39 40 37 33 29 28 42 45 46 50 56 67 65 73
254 181 136 136 144 161 181 189 182 161 131 118 133 159 134 106 85 59 61 61 43 24 16 4 0 12 28 27 29 38 37 29 20 22 14 28 35 48 52 51 48 52 66
198 184 150 145 148 166 176 180 155 116 99 98 119 140 110 93 75 56 59 43 22 22 30 30 28 28 27 32 44 44 44 41 30 8 13 20 30 44 49 52 56 58 50
180 177 164 168 152 152 137 130 106 89 84 99 112 125 92 87 76 60 50 36 28 24 38 41 45 41 42 46 44 51 53 45 21 21 24 17 20 33 42 41 41 51 61
180 162 186 190 175 138 124 117 107 95 86 76 112 114 80 85 84 61 56 34 39 20 24 38 54 57 61 67 78 74 65 45 14 28 28 26 37 43 43 43 49 47 53
158 156 153 138 141 174 168 151 124 108 83 87 96 88 98 92 95 74 52 47 32 41 43 53 57 74 77 81 83 82 63 32 25 24 25 29 38 51 50 44 50 57 66
172 85 104 118 160 240 230 113 90 66 117 92 123 95 103 109 79 64 68 35 52 78 92 84 79 81 73 75 68 63 50 25 25 37 32 42 46 49 50 48 53 60 71
257 265 243 298 273 275 270 105 59 43 58 73 71 122 119 115 91 82 71 68 62 74 91 115 120 100 77 62 70 77 58 31 34 30 35 40 54 65 63 54 56 62 75
283 298 301 426 336 304 326 102 49 62 85 73 131 133 97 112 103 98 87 91 82 87 112 116 116 102 107 102 83 71 50 39 38 32 26 62 68 73 58 64 62 56 61
287 297 400 408 273 192 145 177 61 55 28 96 115 94 107 100 88 69 82 110 120 135 118 117 130 144 146 132 111 86 42 33 38 38 44 65 75 81 76 63 57 66 69
355 370 370 455 394 426 261 239 -23 -6 55 85 82 89 103 93 73 72 80 102 143 134 149 164 153 146 112 74 56 58 44 50 57 60 73 94 79 93 97 81 68 61 57
281 442 681 457 127 144 -13 -15 19 10 48 88 92 98 99 91 72 60 67 79 76 111 116 125 115 103 101 81 63 54 60 66 70 79 105 103 96 94 114 97 83 64 54
273 40 39 -10 72 4 -128 -88 -10 20 44 74 81 75 75 68 67 65 65 69 100 110 143 136 100 96 117 93 75 70 75 81 81 82 81 90 94 106 150 124 95 69 41
76 15 -36 -175 -156 -182 -101 -57 -24 3 40 32 12 24 56 55 60 65 77 104 133 129 142 109 106 127 94 89 88 95 104 95 73 68 90 146 124 120 157 157 143 93 93
-102 -193 -271 -267 -114 -52 -43 -6 40 21 -6 -12 30 27 28 45 71 105 122 146 145 146 132 136 117 98 102 107 114 104 87 83 86 98 99 135 249 283 277 223 168 137 113
-161 -166 -149 -81 39 29 29 -10 -12 -7 31 22 26 30 28 60 96 134 150 146 168 157 162 146 122 100 107 101 108 98 90 100 108 104 94 104 129 195 200 190 188 183 141
-53 -104 12 25 24 15 11 9 6 0 29 23 19 23 45 85 115 135 133 173 156 156 150 130 110 114 110 103 101 100 90 89 92 91 74 69 84 103 145 184 187 178 167
44 51 65 74 53 36 5 35 12 19 14 32 46 53 79 100 110 128 140 161 156 167 133 111 118 111 114 105 87 74 57 70 80 79 67 73 106 129 127 172 196 202 197
32 47 44 54 34 5 5 -1 6 10 15 31 38 51 76 82 105 132 149 167 160 148 138 137 143 144 124 105 70 29 18 21 60 80 64 103 113 123 119 127 129 140 153
42 41 54 35 16 41 35 27 17 25 31 37 47 63 74 100 125 165 170 172 155 156 164 166 176 156 136 75 22 3 10 34 70 76 62 85 105 112 91 89 93 107 104
41 57 25 14 38 44 36 51 48 59 51 60 75 91 77 123 151 172 177 181 191 205 185 176 181 157 113 53 29 -3 8 46 60 77 89 94 124 141 90 70 88 78 84
24 53 34 28 43 55 53 97 123 136 104 108 121 103 102 129 154 160 186 206 218 209 199 202 211 179 130 89 34 52 76 76 135 131 127 119 121 142 104 100 105 90 106
-10 2 26 39 64 82 107 122 154 143 163 149 146 132 137 149 172 190 224 246 245 234 231 245 227 188 207 114 98 15 90 102 148 173 137 112 119 128 121 119 130 127 145
31 50 54 62 83 100 116 124 134 132 157 194 178 204 194 179 204 224 247 273 276 285 284 263 263 226 280 100 79 102 116 141 145 158 159 147 132 118 120 119 115 122 145
61 63 75 78 93 127 131 164 138 134 176 218 194 241 209 203 244 241 259 278 318 355 357 358 243 212 202 181 148 124 150 157 157 157 162 133 143 117 125 143 130 163 175

GFSSE_con_3kmhel_069.txt.gz
Helicity
177 141 153 159 162 144 151 136 143 149 135 131 123 109 93 91 68 34 23 28 20 31 37 41 36 36 37 35 35 27 13 2 0 8 33 47 55 61 83 123 62 69 82
226 145 151 160 169 149 150 157 163 154 151 135 113 103 102 75 47 31 21 24 22 31 34 26 20 16 22 18 15 0 -14 -33 -16 -4 -30 27 61 59 54 57 60 57 74
151 127 125 163 172 148 153 163 163 160 152 131 114 98 96 58 41 36 29 21 24 17 15 8 9 13 16 11 1 -14 -34 -60 -74 -35 -30 10 28 44 37 48 59 48 61
127 137 146 173 176 151 163 165 174 158 145 124 105 95 75 50 49 34 32 13 13 -1 2 4 15 16 12 2 -8 -29 -52 -49 -26 -16 15 18 16 42 39 34 53 75 47
175 107 217 181 172 171 168 183 175 147 132 113 102 101 77 59 56 42 33 13 0 -6 10 11 19 17 10 -1 -23 -44 -67 -76 -85 13 51 45 21 30 46 64 45 55 69
132 168 206 193 170 183 190 185 158 145 128 114 118 126 87 78 78 63 58 34 16 10 25 18 24 18 12 -4 -23 -35 -58 -53 -69 20 33 32 26 35 42 45 48 53 62
142 163 157 214 196 199 200 175 164 153 138 138 135 139 100 97 96 96 96 76 60 53 30 27 30 28 19 6 -10 -24 -29 34 11 16 57 26 18 28 33 38 47 57 63
292 162 151 157 215 199 187 190 182 160 150 142 151 138 107 126 110 111 105 96 80 64 49 49 40 36 24 14 1 -16 -40 -38 -25 -3 71 65 29 30 35 39 45 54 71
174 221 259 173 138 263 255 244 226 180 151 157 165 141 134 131 96 115 98 85 83 80 71 63 52 41 35 24 0 -5 -33 -46 -17 0 64 69 48 41 39 42 46 57 68
121 127 268 259 182 347 256 223 201 180 170 159 147 134 151 137 114 117 100 102 83 84 79 62 57 55 46 20 9 -16 -44 -59 -12 11 75 48 40 60 50 50 50 58 66
235 367 459 574 451 358 486 215 165 109 85 124 120 95 97 83 73 82 91 99 113 97 79 65 65 59 39 30 17 -23 -21 -18 -7 29 76 34 48 65 57 53 50 50 57
319 367 472 464 613 561 405 203 89 41 16 68 59 32 51 71 55 64 80 114 112 97 77 73 42 -2 -33 20 20 -16 4 -8 13 52 88 62 46 83 84 63 46 39 41
327 418 440 389 359 184 312 222 398 239 95 11 50 14 30 87 71 58 73 65 61 52 48 39 18 9 56 56 33 23 9 1 12 56 80 74 69 85 90 73 59 52 50
319 370 378 442 492 217 287 513 535 406 150 29 35 26 57 49 52 61 48 43 31 25 27 33 62 54 62 46 40 27 18 25 40 53 67 69 62 72 93 77 70 58 64
290 351 359 425 370 416 628 556 381 227 102 -68 11 8 21 49 51 27 38 35 25 39 36 71 79 56 51 36 31 35 39 34 33 49 103 112 87 74 106 95 93 71 92
519 492 428 288 91 123 174 44 38 7 -110 -127 -54 -10 18 39 57 45 47 36 58 47 66 68 76 56 43 48 47 53 49 45 55 46 115 94 153 200 207 168 126 105 91
100 42 59 34 16 1 -43 -142 -136 -100 -66 -51 -27 3 -6 -11 47 53 55 58 63 72 85 94 82 67 52 62 69 56 59 55 69 52 47 123 103 146 159 161 145 135 141
137 112 87 16 -77 -130 -118 -59 -67 -35 24 4 -27 -47 -36 90 66 64 79 90 68 101 97 101 76 65 74 70 77 76 75 68 63 45 69 69 93 167 149 165 146 135 144
-20 -56 -115 -84 -36 -16 -19 20 16 -4 -7 -45 -63 -45 12 60 51 59 61 52 102 101 120 91 94 75 94 82 96 81 77 82 96 86 98 84 100 95 105 200 134 113 129
7 0 20 40 36 23 -6 -13 -29 -48 -50 -51 -31 19 38 55 56 33 50 96 90 119 106 106 115 113 100 115 95 102 104 86 113 102 81 75 102 108 80 134 119 121 96
25 41 32 42 22 -6 -22 -29 -34 -28 -27 -24 20 36 44 39 39 42 65 94 81 109 115 130 135 144 129 118 84 66 83 101 85 72 95 80 99 118 136 130 118 141 129
74 23 16 5 6 -15 -20 -24 -28 -15 1 5 51 35 37 49 57 56 81 110 102 113 130 140 140 133 126 121 103 107 88 188 127 72 64 80 155 121 132 137 177 122 94
44 32 1 1 -6 -13 -24 -18 -14 -7 1 17 58 65 63 60 64 67 103 128 121 118 147 137 138 130 144 146 133 140 123 111 133 97 191 210 146 143 145 130 133 103 96
16 8 10 0 -7 2 -24 11 12 19 32 35 75 59 52 57 79 85 111 117 147 146 154 151 131 148 142 222 151 110 101 152 130 143 168 200 158 152 146 133 102 99 88
31 17 17 7 3 22 44 8 42 29 48 56 117 93 112 99 82 137 127 143 149 179 174 180 160 153 193 190 195 161 111 89 74 79 84 137 157 184 167 174 168 147 111
39 36 29 30 36 38 73 61 52 65 43 62 159 164 147 146 147 173 164 225 199 151 187 177 197 229 223 227 188 129 78 93 108 106 164 184 203 200 173 172 190 142 133

GFSSE_con_3kmhel_075.txt.gz
Helicity
393 189 149 158 286 201 175 166 166 144 144 133 145 144 130 109 95 75 80 71 75 75 71 71 68 67 58 47 35 16 15 28 48 49 65 71 72 67 64 64 64 56 72
255 177 141 145 246 175 172 172 163 152 134 134 126 117 97 82 67 62 63 79 84 79 73 62 48 37 37 38 27 -4 -42 -11 32 32 50 60 57 64 68 67 52 46 69
275 113 149 96 161 145 161 165 160 150 140 118 112 94 75 62 53 59 77 78 73 66 54 43 34 33 42 44 30 21 12 5 43 11 16 22 29 49 51 57 45 55 53
5 415 234 47 129 135 154 157 153 140 127 111 91 82 70 59 58 80 88 69 56 44 37 32 21 17 19 29 36 44 57 82 94 33 -3 12 18 43 46 51 50 50 60
-23 277 360 37 147 144 147 142 142 134 118 96 88 81 72 67 77 80 70 46 37 33 32 23 16 12 13 19 43 78 55 50 54 20 14 -8 -7 26 41 45 46 56 71
-60 39 75 299 190 157 151 155 152 145 133 109 96 86 86 81 84 71 62 42 40 39 34 22 14 12 6 26 59 111 89 63 56 -3 -22 -0 -10 28 35 37 36 44 62
107 97 210 103 194 193 166 199 177 164 139 112 98 88 79 69 71 71 61 52 42 37 30 20 17 16 7 24 77 140 114 57 3 -20 -23 -29 -8 29 37 40 43 49 63
210 208 295 199 161 160 184 221 190 161 140 123 112 101 91 69 62 74 63 53 42 36 29 16 19 21 3 11 98 185 151 40 3 -13 -31 -26 21 32 39 45 46 56 60
192 98 76 321 -13 142 291 269 226 180 167 161 148 137 124 99 76 76 64 61 50 40 33 20 18 17 -16 52 97 165 184 80 15 -14 -20 -18 25 33 41 46 48 58 66
174 271 282 205 26 304 467 374 283 237 209 191 176 181 181 156 123 99 75 66 44 48 25 27 18 -12 17 69 91 137 127 134 19 -31 -53 -15 26 30 41 41 43 44 49
183 183 224 235 115 136 246 217 240 211 195 197 179 183 171 142 117 104 76 58 71 31 24 33 -14 14 7 64 68 79 62 32 18 -10 -28 30 26 24 31 36 36 38 45
205 207 258 251 295 251 226 122 141 144 160 146 141 148 180 130 116 128 75 78 62 33 20 9 28 5 40 27 19 63 55 24 8 -2 -20 22 31 31 30 34 36 40 42
194 223 266 324 287 326 437 402 352 300 115 106 138 156 169 119 99 135 76 61 69 20 35 25 7 20 13 14 35 56 75 45 32 20 14 33 40 41 32 28 35 45 65
264 225 321 374 364 412 448 322 357 229 339 268 119 119 91 94 55 65 52 71 45 17 32 13 26 17 31 20 30 51 62 17 28 14 15 63 41 50 39 39 44 57 71
249 287 389 534 545 481 269 311 335 429 370 303 96 40 46 89 40 22 61 57 27 25 23 36 33 40 27 38 32 50 74 58 54 39 14 44 51 57 58 59 49 55 66
215 281 275 247 255 375 370 394 326 332 256 413 140 54 30 -3 -14 27 31 34 22 10 35 51 40 50 22 40 55 56 64 59 53 47 13 26 84 98 108 98 88 93 88
136 247 343 388 340 442 423 464 308 276 357 256 173 53 60 -4 -21 8 20 23 8 4 75 72 64 53 45 51 53 53 57 60 74 49 53 79 103 142 137 124 115 117 125
185 155 211 240 282 285 219 265 361 375 421 220 132 71 54 -19 -4 6 21 -23 8 85 107 95 86 66 67 63 44 47 45 54 63 99 80 92 103 105 117 126 113 114 110
32 25 55 76 140 146 177 181 229 225 76 16 229 51 -105 39 7 -28 -29 38 84 124 142 134 106 98 97 83 78 72 76 84 76 87 122 114 106 128 125 104 102 111 108
-6 28 8 -10 6 3 2 -22 -65 -129 -151 -136 -108 -50 -25 -27 -45 -44 38 94 121 145 143 140 120 116 113 109 96 127 106 108 90 106 104 145 157 166 127 112 126 118 117
-55 -157 -165 -162 -128 -123 -157 -144 -158 -170 -125 -78 -42 2 -14 -32 18 32 65 79 93 160 150 142 150 132 154 151 190 176 125 120 153 129 140 134 136 140 149 138 142 153 185
-101 -94 -89 -67 -66 -87 -108 -117 -91 -81 -66 -31 -14 10 52 58 36 52 98 105 96 154 156 161 191 201 172 197 205 219 218 212 173 150 159 144 123 150 137 144 150 206 206
-57 -61 -44 -33 -35 -32 -27 -64 -66 -61 -60 -70 -48 4 49 98 104 93 89 115 140 179 185 189 213 233 226 208 233 264 285 250 242 179 122 152 167 137 144 156 197 205 189
-1 -7 11 -0 8 10 9 -10 5 -3 15 8 6 35 99 115 117 130 115 146 179 194 197 224 258 242 266 269 276 253 268 260 277 279 228 209 199 163 158 196 212 188 194
75 37 33 13 -7 5 10 31 2 41 74 63 85 145 160 136 153 159 173 146 185 215 197 246 234 238 326 347 432 373 360 281 265 289 253 219 222 159 152 198 205 199 222
121 54 22 9 39 51 41 59 90 109 124 88 141 189 192 170 156 157 211 158 178 270 257 403 254 350 461 410 460 401 321 334 278 297 305 169 170 158 150 208 232 229 246

GFSSE_con_3kmhel_078.txt.gz
Helicity
207 284 265 223 178 193 224 315 231 264 187 194 182 160 155 160 157 157 149 138 114 103 93 89 88 102 108 94 81 78 75 72 75 67 70 71 67 69 72 83 85 72 88
147 164 284 259 144 218 246 289 229 235 218 199 187 184 181 183 167 149 136 123 110 86 77 88 99 104 88 69 51 33 50 46 57 61 57 62 66 66 80 73 72 55 72
69 151 254 340 152 125 196 197 216 187 182 163 158 167 171 155 148 131 127 107 102 80 77 88 82 68 54 34 10 29 78 37 44 52 60 20 29 52 50 54 54 52 68
29 177 265 508 301 94 128 154 171 165 169 154 149 155 148 135 132 124 121 103 87 73 59 60 58 59 46 29 36 63 55 52 46 48 25 29 30 48 44 46 60 68 80
-12 131 171 299 400 93 99 132 153 167 150 128 118 133 121 119 121 104 103 92 75 55 50 47 50 60 64 34 11 56 56 48 30 23 3 10 11 30 42 49 65 68 68
61 65 95 232 205 143 147 165 156 159 138 121 132 132 118 107 99 105 100 83 68 52 43 45 62 94 81 88 104 70 44 33 6 -5 -8 11 1 32 38 40 54 60 56
53 34 125 92 189 197 213 202 183 181 140 132 134 116 102 100 112 104 85 64 50 39 41 51 72 114 112 91 55 57 32 28 -15 -31 -18 -18 1 28 29 37 41 52 51
57 103 71 186 129 75 120 302 233 180 137 127 123 126 123 113 103 93 73 61 55 46 56 64 66 107 130 105 106 51 42 20 -16 -34 -17 -23 20 28 31 44 49 54 59
164 266 45 64 94 98 276 327 296 155 142 126 136 136 141 114 99 76 75 64 52 51 54 59 64 99 163 115 44 45 34 9 -30 -34 -17 -21 22 24 34 41 41 41 45
207 136 181 107 -62 68 275 437 413 162 186 188 174 150 149 134 105 77 73 63 53 54 55 69 53 102 141 146 97 66 36 16 -22 -32 -30 -20 17 25 26 30 31 32 36
127 130 222 167 10 77 907 390 313 181 249 234 226 198 164 123 99 82 61 54 63 71 49 62 75 98 111 146 72 68 38 -16 -33 -53 -46 19 24 23 28 29 22 26 24
100 155 164 213 120 51 45 325 222 203 201 252 214 203 178 146 100 71 68 65 56 65 52 63 92 49 95 97 60 59 32 4 -19 -48 -45 28 25 32 31 26 12 13 29
111 150 152 203 197 207 239 301 146 189 206 212 205 205 186 190 135 76 69 53 90 75 60 41 36 43 47 71 63 49 33 12 -18 -31 -27 17 33 34 30 19 20 29 30
144 187 149 133 206 260 169 168 147 254 174 154 149 179 158 125 125 77 35 61 70 67 39 32 37 44 36 60 53 34 26 8 -0 -4 -4 20 40 33 25 21 29 31 37
194 160 166 187 192 228 298 254 161 327 331 225 219 149 102 120 101 32 63 47 90 70 27 39 36 12 35 53 58 52 24 15 20 12 5 37 37 37 30 32 30 38 51
156 153 216 238 268 262 311 258 280 303 299 204 106 37 74 94 46 -8 56 25 64 54 28 40 16 28 40 50 58 54 35 26 36 35 13 2 37 54 55 62 57 65 62
132 170 218 305 325 259 230 243 277 313 214 197 152 72 40 53 -17 26 7 18 39 45 49 54 48 61 62 46 53 56 66 56 62 48 42 29 31 102 137 93 80 80 72
124 144 202 203 243 300 226 232 371 298 261 246 166 105 63 36 -30 31 -17 17 34 71 69 73 71 69 68 55 55 59 80 85 66 66 67 57 87 131 130 119 86 69 56
130 140 111 142 239 378 193 274 367 249 238 305 246 202 173 -18 4 7 -9 37 69 25 62 85 88 102 98 65 54 65 86 103 100 81 78 74 98 116 113 94 80 68 56
67 87 105 84 130 171 102 257 115 125 235 281 112 179 -3 49 -7 -72 -53 -27 35 81 85 108 134 116 112 93 85 96 97 100 111 126 117 110 102 117 121 111 94 81 67
-4 5 34 64 41 58 109 173 142 98 74 3 -91 -133 -60 -95 -80 -90 -43 65 80 113 125 139 152 136 130 146 185 164 147 125 125 119 149 150 130 134 150 136 113 102 98
-4 -45 -78 -88 -48 -28 15 4 30 -36 -41 -96 -165 -239 -188 -158 -141 -74 28 62 99 111 128 170 196 190 151 198 219 219 216 197 175 158 164 171 168 171 175 140 129 126 111
-32 -95 -67 -63 -40 -52 -53 -65 -111 -120 -119 -191 -250 -269 -203 -133 -69 24 63 86 105 119 159 189 213 225 214 204 238 282 307 267 252 249 201 171 142 178 190 177 147 156 142
-61 -91 -77 -67 -75 -100 -115 -121 -92 -96 -100 -126 -133 -155 -114 -26 9 70 81 103 115 152 182 208 226 241 266 260 230 276 281 297 329 345 262 222 161 160 172 185 182 172 188
5 -25 -44 -28 -38 -43 -47 -48 -38 -25 -39 -53 -52 -14 5 19 45 88 103 125 131 149 180 251 255 246 293 303 329 415 425 478 520 400 275 242 196 184 176 169 160 154 171
20 30 -4 6 -10 -12 -6 -1 7 19 -7 -21 5 28 41 64 77 86 100 115 136 184 200 222 260 270 319 307 417 508 627 540 339 369 262 236 174 149 205 199 197 190 192

GFSSE_con_3kmhel_084.txt.gz
Helicity
163 220 175 103 142 224 159 208 318 366 293 295 331 259 259 258 241 217 209 203 176 135 125 111 97 86 78 73 79 80 76 69 73 78 81 87 87 85 81 95 113 128 152
211 245 212 218 219 245 191 200 315 348 355 288 296 264 247 253 256 239 222 211 172 142 131 104 79 69 73 79 83 85 101 114 108 92 96 102 83 62 69 58 75 82 114
101 210 267 202 156 188 201 249 327 315 277 315 373 295 225 222 232 227 214 193 168 138 112 105 87 90 80 73 68 74 80 91 108 94 77 46 57 83 98 93 72 78 87
116 146 174 253 183 173 204 322 331 328 266 298 288 220 206 207 226 222 199 180 153 112 90 85 64 71 66 63 64 67 68 64 83 83 79 55 60 77 86 84 83 77 77
108 156 167 166 221 230 252 315 315 321 318 294 311 232 197 208 206 179 174 162 133 106 67 57 52 60 51 45 41 50 57 62 75 70 69 60 48 53 56 70 66 61 54
83 138 157 158 179 176 205 272 299 331 317 261 176 196 195 193 197 157 164 154 137 99 63 56 53 52 51 41 43 42 49 48 45 31 14 33 27 46 49 53 56 59 52
97 126 137 109 162 168 155 179 266 344 214 196 177 143 183 228 193 147 163 152 117 62 38 39 48 50 36 24 28 16 18 30 15 22 6 5 16 42 46 49 50 50 49
198 139 40 138 143 249 133 155 218 322 244 148 257 191 208 245 189 163 167 146 95 63 60 56 57 41 34 29 26 8 -3 5 5 10 8 10 40 44 46 41 42 36 39
135 134 76 136 185 303 133 71 232 328 302 195 212 218 255 269 204 172 171 120 100 95 69 70 52 38 35 22 5 -8 -11 7 0 -25 -12 -7 34 34 31 30 31 31 29
58 125 106 112 107 193 214 181 188 224 261 230 230 288 350 289 192 179 142 101 102 96 45 17 28 36 29 18 6 -2 5 17 -21 -19 -13 -8 23 25 23 26 24 22 16
195 46 130 93 110 203 223 171 168 221 239 210 227 287 346 296 214 171 155 131 113 101 76 29 33 61 31 36 38 41 9 -34 -22 -10 -15 10 17 19 20 22 22 14 10
170 93 99 171 66 35 130 224 370 349 330 204 175 304 398 290 224 178 176 154 132 120 102 66 57 59 66 39 33 21 -6 -12 1 2 -13 10 16 22 24 23 14 6 6
46 42 53 80 55 94 13 104 290 319 177 176 189 285 334 319 254 222 218 168 139 126 105 87 69 20 61 39 27 14 6 -3 -1 -13 -12 7 21 23 21 16 12 9 3
81 45 29 90 103 17 104 -1 151 401 244 251 215 315 316 340 265 204 184 148 125 104 76 98 46 32 55 46 36 31 11 4 -15 -14 -10 -3 9 24 24 11 6 9 12
35 61 66 125 81 96 178 462 379 492 435 299 188 245 242 290 219 155 163 139 108 83 82 78 56 36 57 47 30 37 21 5 -10 -22 -16 7 1 14 23 27 21 22 22
50 57 91 137 98 139 143 330 445 381 347 201 170 216 201 230 151 162 161 110 91 75 78 46 54 59 41 35 37 33 26 19 4 -15 -26 -23 0 11 19 24 20 20 20
13 81 99 99 95 85 114 53 100 185 232 239 161 159 161 175 121 143 122 88 43 97 72 89 107 100 67 40 44 38 34 23 10 -5 -14 -12 -5 16 18 9 27 19 27
41 101 156 108 129 134 65 27 56 162 214 233 178 99 108 113 106 158 93 90 66 123 67 81 102 93 64 49 51 34 37 35 23 10 11 14 14 20 28 73 76 61 55
39 66 141 186 185 229 169 213 194 162 224 238 204 215 144 139 127 130 77 113 84 104 61 94 95 93 64 53 46 45 49 49 43 46 31 38 40 60 75 94 91 71 54
45 58 120 190 196 176 183 220 217 152 219 256 228 191 198 181 100 108 102 106 94 101 80 89 106 92 66 76 79 63 49 57 61 58 68 85 91 105 106 97 94 80 60
22 80 78 106 218 239 222 202 143 37 134 186 160 138 95 96 82 103 95 85 69 100 74 73 110 89 94 104 125 94 71 62 63 71 95 113 122 114 121 109 107 99 73
37 42 79 111 123 199 234 307 150 62 179 159 149 173 83 75 113 76 87 68 70 88 75 64 127 121 116 146 142 141 97 108 103 107 125 141 130 145 151 145 135 111 97
83 69 44 25 30 84 151 266 188 224 229 246 209 268 60 43 58 71 25 25 37 48 42 91 125 141 146 144 181 159 121 95 119 136 122 159 195 167 175 193 194 150 123
33 51 55 44 46 7 34 65 -43 73 137 141 153 -63 -75 -70 -79 -96 -76 -9 60 87 67 106 139 181 210 192 187 193 225 207 158 134 119 149 215 275 171 261 259 257 185
61 62 50 22 20 24 40 10 -35 39 30 -6 -1 -66 -85 -101 -26 -139 0 15 10 31 67 131 177 171 200 229 273 250 271 270 250 251 220 207 304 327 155 216 243 193 208
35 41 40 23 22 14 12 -32 -7 -5 7 -2 -68 -120 -133 -173 -110 -123 -101 -53 4 68 114 146 162 171 199 208 240 298 313 244 294 314 354 307 290 199 207 235 229 204 211

GFSSE_con_3kmhel_087.txt.gz
Helicity
39 100 101 130 146 208 239 213 232 252 252 267 260 213 185 185 164 181 174 153 125 122 110 93 80 72 72 73 76 84 85 85 95 100 102 105 101 124 148 154 149 154 167
17 79 169 229 207 198 133 216 222 245 274 289 272 155 285 252 196 204 201 176 135 118 102 90 84 80 72 72 84 87 81 85 89 85 86 93 89 86 87 121 133 141 134
80 61 127 252 162 132 204 207 229 261 292 276 255 218 302 260 242 217 213 189 155 118 99 85 79 76 70 81 77 87 108 115 108 102 81 66 84 86 103 104 107 125 129
47 93 86 168 159 175 247 236 229 262 280 250 272 312 229 246 247 224 213 181 148 125 111 86 73 73 73 74 74 69 89 80 70 51 64 59 61 85 94 98 96 103 103
52 98 82 122 132 179 199 197 227 253 277 241 252 289 279 222 224 225 208 165 132 108 94 84 82 65 60 62 60 61 65 78 83 50 46 66 67 60 75 76 64 65 76
55 102 186 105 123 174 142 193 264 257 279 247 240 267 223 214 217 249 204 146 102 61 87 80 72 54 39 45 43 44 56 77 34 38 41 35 33 46 48 57 47 56 60
84 96 113 185 117 59 157 192 258 278 295 283 279 271 223 231 225 243 172 117 123 101 77 61 54 57 56 51 49 45 47 38 22 24 26 32 31 37 44 44 46 46 49
56 111 121 163 227 91 76 152 272 250 253 336 280 252 257 219 263 231 205 161 135 82 71 52 63 44 38 25 21 36 34 24 22 36 32 33 34 35 32 28 27 29 24
32 109 130 128 118 78 125 85 109 176 267 306 291 237 228 260 264 242 229 174 112 50 50 52 50 32 14 26 28 8 12 13 15 10 22 22 20 22 23 22 18 22 24
96 59 84 148 176 141 134 138 85 141 236 278 302 247 272 273 300 312 229 139 65 55 39 47 26 16 25 10 5 19 16 3 12 12 15 13 2 12 13 18 20 26 34
112 34 118 106 111 136 185 174 87 90 152 201 313 324 332 286 247 245 192 110 58 48 50 38 38 30 23 39 18 27 -9 5 8 10 7 -5 6 15 21 27 32 27 31
26 5 9 80 76 126 164 178 163 153 202 197 262 311 342 285 239 269 203 108 70 39 38 45 42 46 32 21 10 16 7 15 9 18 9 4 19 26 32 31 28 23 17
-61 -27 -7 3 69 79 96 174 230 243 273 255 243 285 366 300 308 305 211 94 81 41 20 28 37 2 35 -18 17 26 22 10 4 3 17 15 26 29 34 33 26 17 10
-109 -57 30 50 67 61 76 49 168 324 240 408 338 244 351 338 317 257 189 110 96 37 23 -1 -8 19 27 12 37 33 19 7 -3 2 19 16 16 26 25 23 14 6 1
-69 33 58 29 57 49 46 12 142 361 462 467 407 268 349 320 294 216 164 123 86 49 23 -8 17 27 43 37 40 30 18 9 -1 8 5 -1 9 16 21 14 3 3 11
19 54 99 96 56 42 61 115 218 369 432 383 416 383 264 290 291 222 168 124 94 66 28 -1 22 25 44 38 42 24 16 10 7 6 1 -1 2 4 13 18 12 15 26
18 36 114 106 118 73 96 230 276 390 393 262 313 188 265 250 240 209 136 120 86 61 34 41 78 28 41 40 50 24 18 19 14 8 4 -1 0 -2 11 20 23 24 27
23 83 90 94 85 90 63 604 450 678 400 296 252 211 216 223 187 168 123 96 91 75 52 64 83 31 37 47 42 28 23 32 20 20 16 9 5 8 12 8 26 31 49
57 71 85 91 85 106 91 182 250 328 318 333 318 239 180 146 178 167 132 94 72 73 59 82 75 50 46 51 44 34 43 42 33 42 30 18 19 26 32 45 63 79 61
46 62 119 101 129 145 141 154 169 209 313 290 318 200 219 98 66 117 119 103 92 85 73 103 71 50 51 65 70 52 50 46 44 53 53 56 51 44 48 50 64 71 82
38 74 96 123 126 116 102 172 144 172 181 233 288 266 101 67 117 131 119 105 95 68 66 97 73 68 77 98 105 73 63 50 55 70 84 86 76 72 85 95 91 92 101
22 54 80 113 124 119 117 140 113 204 180 234 215 131 162 195 156 109 128 93 69 73 53 76 84 88 87 116 97 96 68 76 75 87 105 113 99 114 144 166 127 113 131
70 99 88 90 124 146 170 170 218 152 177 215 217 206 104 127 215 169 90 66 46 48 38 58 79 66 73 105 109 104 63 50 77 83 88 136 131 135 147 172 197 130 151
95 92 117 77 71 114 163 175 178 52 162 144 157 197 169 54 -70 -65 -10 11 -9 -4 -12 35 78 66 111 127 147 136 153 157 98 85 111 114 119 144 152 222 272 181 129
94 106 88 95 90 31 57 79 110 28 2 97 128 66 50 54 18 -67 -82 -59 -41 -9 12 31 79 77 106 132 174 209 165 162 166 147 102 112 154 131 132 167 190 204 169
72 71 73 55 56 65 87 86 48 36 35 62 36 44 19 11 -29 -53 -68 -57 -29 -19 -4 10 48 48 97 135 144 190 241 185 136 188 198 175 172 190 164 192 175 177 212

GFSSE_con_3kmhel_093.txt.gz
Helicity
45 141 141 125 109 79 84 108 124 125 119 145 131 133 126 117 121 127 129 97 95 78 68 67 66 93 100 116 121 129 137 126 126 126 150 136 127 123 101 101 111 123 130
51 84 134 145 114 82 103 93 101 115 129 165 156 153 147 116 113 105 125 83 88 98 86 85 99 95 96 101 119 123 127 126 129 131 133 170 157 154 171 188 172 168 169
39 71 99 136 136 88 103 102 105 99 118 151 154 167 158 136 108 75 131 129 113 96 73 61 91 97 98 105 109 101 77 48 20 -15 -24 72 114 146 164 150 148 154 150
42 61 81 124 132 103 77 150 123 90 139 154 164 173 172 165 131 98 140 140 133 88 65 60 70 68 86 113 90 47 29 23 12 57 126 83 79 100 123 109 105 105 101
35 61 96 152 111 92 86 89 89 97 126 169 179 188 182 182 174 124 133 115 112 84 59 63 66 72 83 92 57 19 -31 -90 -78 73 62 66 75 69 77 77 96 110 98
44 57 161 185 101 122 148 131 124 190 110 191 190 211 207 196 172 145 160 90 100 110 93 79 70 66 73 61 27 -11 -40 -22 -67 50 31 29 49 70 99 116 96 96 98
63 66 128 140 138 89 143 277 73 68 101 201 216 219 214 211 186 157 126 128 122 135 118 83 60 51 58 53 2 -24 10 12 24 20 36 50 42 56 60 68 78 77 89
70 88 116 97 91 93 224 214 -40 -103 86 147 236 249 232 218 174 192 150 148 145 144 108 71 54 44 45 32 -18 -2 14 -18 25 46 48 52 55 51 62 64 66 67 62
86 106 112 88 93 93 192 188 68 117 124 66 245 239 251 215 194 165 135 143 136 124 91 70 52 42 45 23 -2 9 -6 22 26 55 54 37 54 71 58 57 63 62 59
104 115 108 119 106 89 104 277 124 73 -141 -44 175 226 256 227 167 205 168 152 122 100 88 69 65 63 58 41 18 -11 -18 -39 51 41 55 61 63 55 57 59 55 46 42
73 128 109 113 134 116 133 145 78 31 -52 63 194 296 259 160 142 139 130 122 106 90 102 105 93 84 56 40 -4 -58 -46 -4 14 73 56 38 39 45 50 47 38 35 33
107 84 77 115 138 117 103 115 38 60 29 194 245 264 158 147 118 95 150 123 112 108 135 118 83 60 12 17 -0 8 -8 -2 51 54 48 24 40 42 42 37 33 35 34
152 102 101 150 177 124 70 38 57 64 4 113 232 187 182 129 93 139 181 129 105 102 102 89 48 10 16 7 14 16 25 -24 42 60 48 29 38 40 40 33 32 30 31
108 146 127 160 120 97 65 32 51 80 229 169 153 188 159 186 166 131 168 124 118 60 77 55 33 30 13 20 4 39 -5 4 53 59 43 38 32 35 37 33 28 25 23
102 123 212 100 78 39 26 71 70 84 159 248 333 248 212 190 183 153 134 122 87 59 46 49 37 24 14 19 28 19 -2 22 62 44 35 34 38 38 32 28 23 19 13
117 113 171 39 9 23 27 65 97 74 161 126 233 244 133 226 194 143 130 105 67 65 47 36 44 22 10 26 21 24 7 16 25 46 49 30 35 31 25 25 21 18 15
142 119 133 53 41 11 4 35 71 69 68 163 235 219 229 231 169 180 131 83 90 75 66 60 37 29 10 14 22 20 16 23 45 43 42 40 33 27 32 26 21 20 21
167 123 67 26 31 44 32 -1 53 98 109 140 283 280 271 232 184 129 129 126 108 105 77 70 37 18 15 8 20 19 22 31 50 43 31 46 43 37 31 30 29 30 30
199 89 33 35 32 30 59 40 54 111 156 210 449 428 305 329 190 133 112 133 168 135 133 83 85 38 16 -10 27 29 28 41 51 47 41 34 64 46 65 84 51 51 44
138 33 37 27 31 66 104 198 189 70 111 599 505 464 459 374 200 91 149 139 157 176 159 106 77 35 12 6 39 45 35 39 46 44 50 48 59 62 54 107 105 89 84
92 52 33 43 48 70 134 268 280 433 467 457 428 444 462 330 120 135 124 137 163 173 144 129 103 78 30 68 83 63 42 41 41 54 55 49 62 82 66 60 158 104 147
100 64 42 46 53 56 71 117 400 354 395 580 581 527 399 324 130 147 169 191 199 240 166 140 119 131 81 55 52 26 38 49 46 55 57 69 75 77 95 97 84 101 137
68 117 67 70 54 71 73 90 145 226 311 358 463 435 395 330 282 100 148 130 158 131 201 122 91 157 69 40 -13 42 45 41 73 87 56 53 95 115 95 129 143 117 138
58 109 131 95 57 50 28 57 103 143 166 173 223 236 169 207 190 187 285 66 50 82 64 141 65 35 24 4 22 -18 30 73 70 84 91 82 83 108 158 148 167 157 200
64 76 141 126 69 27 40 61 83 122 183 232 238 223 164 263 293 214 223 67 -3 48 57 113 -11 -28 34 -29 -52 -0 -1 12 32 42 36 89 174 138 162 173 160 191 175
110 53 94 122 109 45 38 52 66 120 157 159 261 282 265 304 248 184 3 -28 -27 -24 -20 -66 -15 43 -32 -65 -31 35 38 29 15 48 67 47 71 138 178 197 253 144 145